Time,TemperatureF,DewpointF,PressureIn,WindDirection,WindDirectionDegrees,WindSpeedMPH,WindSpeedGustMPH,Humidity,HourlyPrecipIn,Conditions,Clouds,dailyrainin,SoftwareType,DateUTC
2013-01-30 00:00:00,36.9,25.1,30.25,NE,44,1.0,5.0,62,0.00,,---,0.00,VWS V14.01,2013-01-30 07:00:00,
2013-01-30 00:05:00,36.8,25.4,30.25,NE,36,1.0,3.0,63,0.00,,---,0.00,VWS V14.01,2013-01-30 07:05:00,
2013-01-30 00:10:00,36.4,25.4,30.24,NNE,27,2.0,3.0,64,0.00,,---,0.00,VWS V14.01,2013-01-30 07:10:00,
2013-01-30 00:15:00,36.1,25.5,30.25,NNW,345,0.0,3.0,65,0.00,,---,0.00,VWS V14.01,2013-01-30 07:15:00,
2013-01-30 00:20:00,36.0,25.4,30.25,North,357,1.0,3.0,65,0.00,,---,0.00,VWS V14.01,2013-01-30 07:20:00,
2013-01-30 00:25:00,36.0,25.0,30.24,NNE,23,2.0,3.0,64,0.00,,---,0.00,VWS V14.01,2013-01-30 07:25:00,
2013-01-30 00:31:00,36.5,25.1,30.24,NNE,13,2.0,4.0,63,0.00,,---,0.00,VWS V14.01,2013-01-30 07:31:00,
2013-01-30 00:36:00,36.8,25.0,30.24,North,7,2.0,5.0,62,0.00,,---,0.00,VWS V14.01,2013-01-30 07:36:00,
2013-01-30 00:41:00,36.7,24.9,30.25,NNW,332,1.0,6.0,62,0.00,,---,0.00,VWS V14.01,2013-01-30 07:41:00,
2013-01-30 00:46:00,36.1,25.1,30.25,NNE,20,3.0,6.0,64,0.00,,---,0.00,VWS V14.01,2013-01-30 07:46:00,
2013-01-30 00:51:00,36.1,25.1,30.25,North,10,3.0,6.0,64,0.00,,---,0.00,VWS V14.01,2013-01-30 07:51:00,
2013-01-30 00:56:00,36.1,25.1,30.25,NNE,26,3.0,6.0,64,0.00,,---,0.00,VWS V14.01,2013-01-30 07:56:00,
2013-01-30 01:01:00,36.3,24.9,30.25,NNE,19,3.0,6.0,63,0.00,,---,0.00,VWS V14.01,2013-01-30 08:01:00,
2013-01-30 01:06:00,36.4,25.0,30.25,North,1,3.0,4.0,63,0.00,,---,0.00,VWS V14.01,2013-01-30 08:06:00,
2013-01-30 01:11:00,36.6,25.2,30.25,North,4,2.0,4.0,63,0.00,,---,0.00,VWS V14.01,2013-01-30 08:11:00,
2013-01-30 01:16:00,36.3,24.5,30.25,North,355,0.0,4.0,62,0.00,,---,0.00,VWS V14.01,2013-01-30 08:16:00,
2013-01-30 01:21:00,36.2,24.8,30.26,NE,37,0.0,4.0,63,0.00,,---,0.00,VWS V14.01,2013-01-30 08:21:00,
2013-01-30 01:26:00,36.1,24.7,30.26,NNE,29,0.0,4.0,63,0.00,,---,0.00,VWS V14.01,2013-01-30 08:26:00,
2013-01-30 01:31:00,36.0,24.6,30.25,North,356,0.0,4.0,63,0.00,,---,0.00,VWS V14.01,2013-01-30 08:31:00,
2013-01-30 01:36:00,35.5,24.5,30.26,North,349,0.0,0.0,64,0.00,,---,0.00,VWS V14.01,2013-01-30 08:36:00,
2013-01-30 01:41:00,35.2,24.6,30.26,NNE,21,0.0,0.0,65,0.00,,---,0.00,VWS V14.01,2013-01-30 08:41:00,
2013-01-30 01:47:00,35.4,24.8,30.26,NNW,343,0.0,1.0,65,0.00,,---,0.00,VWS V14.01,2013-01-30 08:47:00,
2013-01-30 01:52:00,35.3,24.7,30.26,North,5,0.0,1.0,65,0.00,,---,0.00,VWS V14.01,2013-01-30 08:52:00,
2013-01-30 01:57:00,35.3,24.4,30.26,North,9,0.0,1.0,64,0.00,,---,0.00,VWS V14.01,2013-01-30 08:57:00,
2013-01-30 02:02:00,35.4,24.5,30.27,North,352,0.0,1.0,64,0.00,,---,0.00,VWS V14.01,2013-01-30 09:02:00,
2013-01-30 02:07:00,35.5,24.5,30.27,North,359,0.0,0.0,64,0.00,,---,0.00,VWS V14.01,2013-01-30 09:07:00,
2013-01-30 02:12:00,35.6,24.6,30.26,North,1,0.0,0.0,64,0.00,,---,0.00,VWS V14.01,2013-01-30 09:12:00,
2013-01-30 02:17:00,35.5,24.5,30.27,NNE,15,1.0,2.0,64,0.00,,---,0.00,VWS V14.01,2013-01-30 09:17:00,
2013-01-30 02:22:00,35.8,24.5,30.27,NNE,32,1.0,3.0,63,0.00,,---,0.00,VWS V14.01,2013-01-30 09:22:00,
2013-01-30 02:27:00,36.5,24.7,30.27,NNE,14,1.0,5.0,62,0.00,,---,0.00,VWS V14.01,2013-01-30 09:27:00,
2013-01-30 02:32:00,37.2,24.6,30.27,NNE,28,2.0,5.0,60,0.00,,---,0.00,VWS V14.01,2013-01-30 09:32:00,
2013-01-30 02:37:00,37.4,24.8,30.27,NE,47,3.0,7.0,60,0.00,,---,0.00,VWS V14.01,2013-01-30 09:37:00,
2013-01-30 02:42:00,37.2,25.0,30.27,NNE,18,3.0,7.0,61,0.00,,---,0.00,VWS V14.01,2013-01-30 09:42:00,
2013-01-30 02:47:00,37.0,24.8,30.27,NNE,14,3.0,7.0,61,0.00,,---,0.00,VWS V14.01,2013-01-30 09:47:00,
2013-01-30 02:53:00,36.8,25.0,30.27,NNE,16,4.0,7.0,62,0.00,,---,0.00,VWS V14.01,2013-01-30 09:53:00,
2013-01-30 02:58:00,36.8,25.0,30.27,NNE,18,6.0,7.0,62,0.00,,---,0.00,VWS V14.01,2013-01-30 09:58:00,
2013-01-30 03:03:00,37.1,24.9,30.27,NNE,27,5.0,8.0,61,0.00,,---,0.00,VWS V14.01,2013-01-30 10:03:00,
2013-01-30 03:08:00,37.4,25.2,30.27,NE,37,2.0,7.0,61,0.00,,---,0.00,VWS V14.01,2013-01-30 10:08:00,
2013-01-30 03:13:00,37.4,25.2,30.28,NE,49,3.0,8.0,61,0.00,,---,0.00,VWS V14.01,2013-01-30 10:13:00,
2013-01-30 03:18:00,37.3,25.1,30.28,NNE,20,2.0,8.0,61,0.00,,---,0.00,VWS V14.01,2013-01-30 10:18:00,
2013-01-30 03:23:00,37.0,25.2,30.28,NNE,32,4.0,8.0,62,0.00,,---,0.00,VWS V14.01,2013-01-30 10:23:00,
2013-01-30 03:28:00,36.8,25.0,30.28,NNW,346,3.0,8.0,62,0.00,,---,0.00,VWS V14.01,2013-01-30 10:28:00,
2013-01-30 03:33:00,36.7,24.9,30.28,North,360,2.0,3.0,62,0.00,,---,0.00,VWS V14.01,2013-01-30 10:33:00,
2013-01-30 03:38:00,36.8,25.0,30.28,North,354,1.0,6.0,62,0.00,,---,0.00,VWS V14.01,2013-01-30 10:38:00,
2013-01-30 03:43:00,37.0,25.2,30.28,North,359,3.0,6.0,62,0.00,,---,0.00,VWS V14.01,2013-01-30 10:43:00,
2013-01-30 03:48:00,37.1,25.3,30.28,NE,34,3.0,6.0,62,0.00,,---,0.00,VWS V14.01,2013-01-30 10:48:00,
2013-01-30 03:53:00,37.3,25.1,30.28,NE,44,3.0,6.0,61,0.00,,---,0.00,VWS V14.01,2013-01-30 10:53:00,
2013-01-30 03:58:00,37.3,25.1,30.28,NNE,27,2.0,6.0,61,0.00,,---,0.00,VWS V14.01,2013-01-30 10:58:00,
2013-01-30 04:03:00,37.2,25.4,30.28,NNE,20,2.0,3.0,62,0.00,,---,0.00,VWS V14.01,2013-01-30 11:03:00,
2013-01-30 04:08:00,37.1,25.7,30.28,NNE,22,2.0,4.0,63,0.00,,---,0.00,VWS V14.01,2013-01-30 11:08:00,
2013-01-30 04:13:00,37.0,25.6,30.29,NE,34,3.0,4.0,63,0.00,,---,0.00,VWS V14.01,2013-01-30 11:13:00,
2013-01-30 04:18:00,36.8,25.4,30.29,NNE,16,3.0,4.0,63,0.00,,---,0.00,VWS V14.01,2013-01-30 11:18:00,
2013-01-30 04:24:00,36.8,25.8,30.29,NNE,22,3.0,6.0,64,0.00,,---,0.00,VWS V14.01,2013-01-30 11:24:00,
2013-01-30 04:29:00,36.9,25.5,30.29,NNE,26,2.0,7.0,63,0.00,,---,0.00,VWS V14.01,2013-01-30 11:29:00,
2013-01-30 04:34:00,37.1,25.7,30.29,NE,34,8.0,8.0,63,0.00,,---,0.00,VWS V14.01,2013-01-30 11:34:00,
2013-01-30 04:39:00,37.3,25.5,30.29,NNE,32,5.0,8.0,62,0.00,,---,0.00,VWS V14.01,2013-01-30 11:39:00,
2013-01-30 04:44:00,37.5,25.7,30.29,North,11,3.0,8.0,62,0.00,,---,0.00,VWS V14.01,2013-01-30 11:44:00,
2013-01-30 04:49:00,37.4,25.6,30.29,North,349,2.0,8.0,62,0.00,,---,0.00,VWS V14.01,2013-01-30 11:49:00,
2013-01-30 04:54:00,37.3,25.5,30.29,NNE,27,3.0,8.0,62,0.00,,---,0.00,VWS V14.01,2013-01-30 11:54:00,
2013-01-30 04:59:00,36.9,25.5,30.29,NNE,22,3.0,8.0,63,0.00,,---,0.00,VWS V14.01,2013-01-30 11:59:00,
2013-01-30 05:04:00,36.7,25.3,30.29,NNE,13,2.0,4.0,63,0.00,,---,0.00,VWS V14.01,2013-01-30 12:04:00,
2013-01-30 05:09:00,36.6,25.2,30.29,North,359,2.0,4.0,63,0.00,,---,0.00,VWS V14.01,2013-01-30 12:09:00,
2013-01-30 05:14:00,36.6,25.6,30.30,NNE,21,1.0,4.0,64,0.00,,---,0.00,VWS V14.01,2013-01-30 12:14:00,
2013-01-30 05:19:00,36.6,25.2,30.30,NNW,338,0.0,4.0,63,0.00,,---,0.00,VWS V14.01,2013-01-30 12:19:00,
2013-01-30 05:24:00,36.3,25.3,30.30,NNW,343,0.0,4.0,64,0.00,,---,0.00,VWS V14.01,2013-01-30 12:24:00,
2013-01-30 05:30:00,35.9,25.3,30.30,South,172,0.0,4.0,65,0.00,,---,0.00,VWS V14.01,2013-01-30 12:30:00,
2013-01-30 05:35:00,34.9,25.4,30.30,South,172,0.0,0.0,68,0.00,,---,0.00,VWS V14.01,2013-01-30 12:35:00,
2013-01-30 05:40:00,34.0,25.3,30.30,SSE,168,0.0,0.0,70,0.00,,---,0.00,VWS V14.01,2013-01-30 12:40:00,
2013-01-30 05:45:00,33.0,25.0,30.31,SSE,167,0.0,0.0,72,0.00,,---,0.00,VWS V14.01,2013-01-30 12:45:00,
2013-01-30 05:50:00,32.1,25.1,30.30,South,169,0.0,0.0,75,0.00,,---,0.00,VWS V14.01,2013-01-30 12:50:00,
2013-01-30 05:55:00,31.3,24.9,30.31,South,169,0.0,0.0,77,0.00,,---,0.00,VWS V14.01,2013-01-30 12:55:00,
2013-01-30 06:00:00,31.0,25.3,30.31,ENE,73,0.0,1.0,79,0.00,,---,0.00,VWS V14.01,2013-01-30 13:00:00,
2013-01-30 06:05:00,30.9,25.2,30.31,ENE,73,0.0,0.0,79,0.00,,---,0.00,VWS V14.01,2013-01-30 13:05:00,
2013-01-30 06:10:00,30.7,25.3,30.31,ENE,74,0.0,0.0,80,0.00,,---,0.00,VWS V14.01,2013-01-30 13:10:00,
2013-01-30 06:15:00,30.4,25.0,30.31,ENE,74,0.0,0.0,80,0.00,,---,0.00,VWS V14.01,2013-01-30 13:15:00,
2013-01-30 06:20:00,29.9,24.8,30.31,ENE,74,0.0,0.0,81,0.00,,---,0.00,VWS V14.01,2013-01-30 13:20:00,
2013-01-30 06:25:00,29.7,24.9,30.32,ENE,73,0.0,0.0,82,0.00,,---,0.00,VWS V14.01,2013-01-30 13:25:00,
2013-01-30 06:30:00,29.6,25.1,30.32,ENE,58,0.0,1.0,83,0.00,,---,0.00,VWS V14.01,2013-01-30 13:30:00,
2013-01-30 06:36:00,29.4,24.6,30.32,ENE,57,0.0,0.0,82,0.00,,---,0.00,VWS V14.01,2013-01-30 13:36:00,
2013-01-30 06:41:00,29.6,25.4,30.32,NE,55,0.0,1.0,84,0.00,,---,0.00,VWS V14.01,2013-01-30 13:41:00,
2013-01-30 06:46:00,29.8,25.3,30.32,NNE,30,0.0,2.0,83,0.00,,---,0.00,VWS V14.01,2013-01-30 13:46:00,
2013-01-30 06:51:00,29.7,25.2,30.32,NNE,30,0.0,2.0,83,0.00,,---,0.00,VWS V14.01,2013-01-30 13:51:00,
2013-01-30 06:56:00,29.8,25.3,30.33,NNE,31,1.0,2.0,83,0.00,,---,0.00,VWS V14.01,2013-01-30 13:56:00,
2013-01-30 07:01:00,30.0,25.5,30.33,NE,39,0.0,2.0,83,0.00,,---,0.00,VWS V14.01,2013-01-30 14:01:00,
2013-01-30 07:06:00,30.0,25.2,30.33,NE,40,0.0,0.0,82,0.00,,---,0.00,VWS V14.01,2013-01-30 14:06:00,
2013-01-30 07:11:00,29.9,25.1,30.33,NNE,32,1.0,1.0,82,0.00,,---,0.00,VWS V14.01,2013-01-30 14:11:00,
2013-01-30 07:16:00,29.7,25.2,30.33,NNE,20,2.0,3.0,83,0.00,,---,0.00,VWS V14.01,2013-01-30 14:16:00,
2013-01-30 07:21:00,29.7,25.2,30.33,NNE,25,1.0,4.0,83,0.00,,---,0.00,VWS V14.01,2013-01-30 14:21:00,
2013-01-30 07:26:00,29.8,25.3,30.33,NNE,29,2.0,4.0,83,0.00,,---,0.00,VWS V14.01,2013-01-30 14:26:00,
2013-01-30 07:31:00,30.2,25.4,30.33,NNE,18,1.0,4.0,82,0.00,,---,0.00,VWS V14.01,2013-01-30 14:31:00,
2013-01-30 07:37:00,30.6,25.8,30.34,NNE,26,0.0,2.0,82,0.00,,---,0.00,VWS V14.01,2013-01-30 14:37:00,
2013-01-30 07:42:00,30.6,25.5,30.34,ENE,68,1.0,2.0,81,0.00,,---,0.00,VWS V14.01,2013-01-30 14:42:00,
2013-01-30 07:47:00,30.4,25.3,30.35,ENE,68,0.0,2.0,81,0.00,,---,0.00,VWS V14.01,2013-01-30 14:47:00,
2013-01-30 07:52:00,30.0,25.2,30.35,ENE,65,2.0,3.0,82,0.00,,---,0.00,VWS V14.01,2013-01-30 14:52:00,
2013-01-30 07:57:00,30.1,25.3,30.35,ENE,65,0.0,3.0,82,0.00,,---,0.00,VWS V14.01,2013-01-30 14:57:00,
2013-01-30 08:02:00,30.6,25.8,30.35,ENE,63,1.0,3.0,82,0.00,,---,0.00,VWS V14.01,2013-01-30 15:02:00,
2013-01-30 08:07:00,31.3,26.2,30.35,NE,54,2.0,2.0,81,0.00,,---,0.00,VWS V14.01,2013-01-30 15:07:00,
2013-01-30 08:12:00,32.2,26.4,30.35,NE,47,1.0,3.0,79,0.00,,---,0.00,VWS V14.01,2013-01-30 15:12:00,
2013-01-30 08:17:00,32.9,26.5,30.35,NNE,33,0.0,3.0,77,0.00,,---,0.00,VWS V14.01,2013-01-30 15:17:00,
2013-01-30 08:22:00,33.9,26.8,30.36,ENE,75,0.0,3.0,75,0.00,,---,0.00,VWS V14.01,2013-01-30 15:22:00,
2013-01-30 08:27:00,35.0,26.9,30.36,ENE,71,0.0,3.0,72,0.00,,---,0.00,VWS V14.01,2013-01-30 15:27:00,
2013-01-30 08:32:00,35.7,27.2,30.36,ENE,70,0.0,3.0,71,0.00,,---,0.00,VWS V14.01,2013-01-30 15:32:00,
2013-01-30 08:37:00,36.9,27.3,30.36,ENE,71,0.0,1.0,68,0.00,,---,0.00,VWS V14.01,2013-01-30 15:37:00,
2013-01-30 08:42:00,37.6,27.3,30.36,ENE,71,0.0,1.0,66,0.00,,---,0.00,VWS V14.01,2013-01-30 15:42:00,
2013-01-30 08:47:00,38.0,27.7,30.36,ENE,71,0.0,1.0,66,0.00,,---,0.00,VWS V14.01,2013-01-30 15:47:00,
2013-01-30 08:52:00,38.7,27.6,30.37,ENE,71,0.0,1.0,64,0.00,,---,0.00,VWS V14.01,2013-01-30 15:52:00,
2013-01-30 08:57:00,39.3,27.4,30.37,WSW,240,0.0,2.0,62,0.00,,---,0.00,VWS V14.01,2013-01-30 15:57:00,
2013-01-30 09:02:00,39.7,27.8,30.37,WSW,245,2.0,4.0,62,0.00,,---,0.00,VWS V14.01,2013-01-30 16:02:00,
2013-01-30 09:07:00,40.0,27.6,30.37,SSE,156,1.0,3.0,61,0.00,,---,0.00,VWS V14.01,2013-01-30 16:07:00,
2013-01-30 09:12:00,40.9,27.7,30.37,SSW,205,0.0,3.0,59,0.00,,---,0.00,VWS V14.01,2013-01-30 16:12:00,
2013-01-30 09:17:00,41.5,26.5,30.37,SSE,167,2.0,4.0,55,0.00,,---,0.00,VWS V14.01,2013-01-30 16:17:00,
2013-01-30 09:22:00,42.4,26.5,30.37,South,172,1.0,4.0,53,0.00,,---,0.00,VWS V14.01,2013-01-30 16:22:00,
2013-01-30 09:27:00,42.9,27.0,30.37,SSW,195,0.0,4.0,53,0.00,,---,0.00,VWS V14.01,2013-01-30 16:27:00,
2013-01-30 09:32:00,43.4,26.5,30.37,SSW,201,1.0,4.0,51,0.00,,---,0.00,VWS V14.01,2013-01-30 16:32:00,
2013-01-30 09:38:00,43.7,26.3,30.37,SW,224,2.0,5.0,50,0.00,,---,0.00,VWS V14.01,2013-01-30 16:38:00,
2013-01-30 09:43:00,44.1,26.2,30.37,South,176,2.0,5.0,49,0.00,,---,0.00,VWS V14.01,2013-01-30 16:43:00,
2013-01-30 09:48:00,44.7,26.7,30.38,SW,232,0.0,5.0,49,0.00,,---,0.00,VWS V14.01,2013-01-30 16:48:00,
2013-01-30 09:53:00,45.3,26.8,30.38,SSW,194,2.0,5.0,48,0.00,,---,0.00,VWS V14.01,2013-01-30 16:53:00,
2013-01-30 09:58:00,45.6,27.1,30.38,South,191,1.0,5.0,48,0.00,,---,0.00,VWS V14.01,2013-01-30 16:58:00,
2013-01-30 10:03:00,45.9,25.8,30.37,South,191,1.0,5.0,45,0.00,,---,0.00,VWS V14.01,2013-01-30 17:03:00,
2013-01-30 10:08:00,46.5,24.7,30.38,SSW,210,2.0,4.0,42,0.00,,---,0.00,VWS V14.01,2013-01-30 17:08:00,
2013-01-30 10:13:00,46.8,26.6,30.38,WSW,243,0.0,4.0,45,0.00,,---,0.00,VWS V14.01,2013-01-30 17:13:00,
2013-01-30 10:18:00,47.6,26.2,30.38,South,172,0.0,4.0,43,0.00,,---,0.00,VWS V14.01,2013-01-30 17:18:00,
2013-01-30 10:23:00,48.4,25.2,30.38,WSW,245,2.0,4.0,40,0.00,,---,0.00,VWS V14.01,2013-01-30 17:23:00,
2013-01-30 10:28:00,48.9,25.0,30.38,SW,216,2.0,4.0,39,0.00,,---,0.00,VWS V14.01,2013-01-30 17:28:00,
2013-01-30 10:33:00,49.3,24.8,30.38,SW,232,1.0,2.0,38,0.00,,---,0.00,VWS V14.01,2013-01-30 17:33:00,
2013-01-30 10:38:00,50.2,25.0,30.38,SE,131,1.0,3.0,37,0.00,,---,0.00,VWS V14.01,2013-01-30 17:38:00,
2013-01-30 10:43:00,50.8,24.1,30.38,SSW,208,0.0,3.0,35,0.00,,---,0.00,VWS V14.01,2013-01-30 17:43:00,
2013-01-30 10:48:00,51.1,25.1,30.38,WSW,250,1.0,4.0,36,0.00,,---,0.00,VWS V14.01,2013-01-30 17:48:00,
2013-01-30 10:53:00,51.3,25.3,30.38,SE,136,0.0,4.0,36,0.00,,---,0.00,VWS V14.01,2013-01-30 17:53:00,
2013-01-30 10:58:00,51.2,21.6,30.38,East,92,1.0,4.0,31,0.00,,---,0.00,VWS V14.01,2013-01-30 17:58:00,
2013-01-30 11:04:00,51.7,15.1,30.38,NE,34,3.0,6.0,23,0.00,,---,0.00,VWS V14.01,2013-01-30 18:04:00,
2013-01-30 11:09:00,51.4,12.8,30.38,NNE,33,3.0,9.0,21,0.00,,---,0.00,VWS V14.01,2013-01-30 18:09:00,
2013-01-30 11:14:00,51.8,15.2,30.38,North,354,1.0,9.0,23,0.00,,---,0.00,VWS V14.01,2013-01-30 18:14:00,
2013-01-30 11:19:00,52.3,16.6,30.38,NNE,32,4.0,9.0,24,0.00,,---,0.00,VWS V14.01,2013-01-30 18:19:00,
2013-01-30 11:24:00,52.3,13.5,30.37,NE,53,0.0,9.0,21,0.00,,---,0.00,VWS V14.01,2013-01-30 18:24:00,
2013-01-30 11:29:00,53.3,16.5,30.36,East,79,1.0,9.0,23,0.00,,---,0.00,VWS V14.01,2013-01-30 18:29:00,
2013-01-30 11:34:00,53.7,14.7,30.36,WNW,302,1.0,2.0,21,0.00,,---,0.00,VWS V14.01,2013-01-30 18:34:00,
2013-01-30 11:39:00,53.4,13.4,30.36,SE,132,2.0,11.0,20,0.00,,---,0.00,VWS V14.01,2013-01-30 18:39:00,
2013-01-30 11:44:00,53.3,21.0,30.37,SW,218,0.0,11.0,28,0.00,,---,0.00,VWS V14.01,2013-01-30 18:44:00,
2013-01-30 11:49:00,53.6,19.6,30.36,SSW,207,0.0,11.0,26,0.00,,---,0.00,VWS V14.01,2013-01-30 18:49:00,
2013-01-30 11:54:00,54.2,18.2,30.36,WSW,237,2.0,11.0,24,0.00,,---,0.00,VWS V14.01,2013-01-30 18:54:00,
2013-01-30 11:59:00,53.9,17.0,30.35,NW,315,0.0,11.0,23,0.00,,---,0.00,VWS V14.01,2013-01-30 18:59:00,
2013-01-30 12:04:00,55.1,17.0,30.35,West,272,1.0,3.0,22,0.00,,---,0.00,VWS V14.01,2013-01-30 19:04:00,
2013-01-30 12:09:00,55.8,19.6,30.35,SSW,212,0.0,3.0,24,0.00,,---,0.00,VWS V14.01,2013-01-30 19:09:00,
2013-01-30 12:14:00,56.0,19.7,30.35,NNW,341,2.0,3.0,24,0.00,,---,0.00,VWS V14.01,2013-01-30 19:14:00,
2013-01-30 12:19:00,55.4,16.1,30.34,ENE,58,8.0,11.0,21,0.00,,---,0.00,VWS V14.01,2013-01-30 19:19:00,
2013-01-30 12:24:00,55.1,19.0,30.35,ESE,103,1.0,11.0,24,0.00,,---,0.00,VWS V14.01,2013-01-30 19:24:00,
2013-01-30 12:29:00,54.7,12.1,30.34,NE,54,1.0,11.0,18,0.00,,---,0.00,VWS V14.01,2013-01-30 19:29:00,
2013-01-30 12:35:00,55.5,8.6,30.34,WSW,254,4.0,4.0,15,0.00,,---,0.00,VWS V14.01,2013-01-30 19:35:00,
2013-01-30 12:40:00,56.0,9.0,30.34,NNE,22,5.0,9.0,15,0.00,,---,0.00,VWS V14.01,2013-01-30 19:40:00,
2013-01-30 12:45:00,56.8,8.1,30.34,WNW,293,1.0,9.0,14,0.00,,---,0.00,VWS V14.01,2013-01-30 19:45:00,
2013-01-30 12:50:00,56.3,7.7,30.34,NNE,25,2.0,9.0,14,0.00,,---,0.00,VWS V14.01,2013-01-30 19:50:00,
2013-01-30 12:55:00,56.2,9.2,30.33,ESE,110,0.0,9.0,15,0.00,,---,0.00,VWS V14.01,2013-01-30 19:55:00,
2013-01-30 13:00:00,56.5,9.4,30.33,NE,34,0.0,9.0,15,0.00,,---,0.00,VWS V14.01,2013-01-30 20:00:00,
2013-01-30 13:05:00,56.4,6.2,30.32,NNE,22,7.0,10.0,13,0.00,,---,0.00,VWS V14.01,2013-01-30 20:05:00,
2013-01-30 13:10:00,55.9,8.9,30.32,NNE,24,1.0,10.0,15,0.00,,---,0.00,VWS V14.01,2013-01-30 20:10:00,
2013-01-30 13:15:00,56.3,7.7,30.31,NNW,336,3.0,10.0,14,0.00,,---,0.00,VWS V14.01,2013-01-30 20:15:00,
2013-01-30 13:20:00,56.6,8.0,30.31,NE,39,2.0,10.0,14,0.00,,---,0.00,VWS V14.01,2013-01-30 20:20:00,
2013-01-30 13:26:00,56.5,9.4,30.31,ENE,71,2.0,10.0,15,0.00,,---,0.00,VWS V14.01,2013-01-30 20:26:00,
2013-01-30 13:31:00,56.8,8.1,30.31,NE,35,6.0,10.0,14,0.00,,---,0.00,VWS V14.01,2013-01-30 20:31:00,
2013-01-30 13:36:00,56.3,9.3,30.30,NE,50,2.0,6.0,15,0.00,,---,0.00,VWS V14.01,2013-01-30 20:36:00,
2013-01-30 13:41:00,56.8,9.7,30.30,WNW,290,3.0,6.0,15,0.00,,---,0.00,VWS V14.01,2013-01-30 20:41:00,
2013-01-30 13:46:00,57.2,10.0,30.29,ENE,58,4.0,8.0,15,0.00,,---,0.00,VWS V14.01,2013-01-30 20:46:00,
2013-01-30 13:51:00,56.7,8.1,30.29,NNE,13,4.0,8.0,14,0.00,,---,0.00,VWS V14.01,2013-01-30 20:51:00,
2013-01-30 13:56:00,56.4,9.3,30.28,NNE,32,2.0,10.0,15,0.00,,---,0.00,VWS V14.01,2013-01-30 20:56:00,
2013-01-30 14:01:00,56.2,9.2,30.28,ENE,68,5.0,12.0,15,0.00,,---,0.00,VWS V14.01,2013-01-30 21:01:00,
2013-01-30 14:06:00,56.0,9.0,30.28,NNE,29,1.0,10.0,15,0.00,,---,0.00,VWS V14.01,2013-01-30 21:06:00,
2013-01-30 14:11:00,56.9,9.8,30.27,NW,316,1.0,10.0,15,0.00,,---,0.00,VWS V14.01,2013-01-30 21:11:00,
2013-01-30 14:16:00,57.4,10.1,30.27,NW,304,6.0,10.0,15,0.00,,---,0.00,VWS V14.01,2013-01-30 21:16:00,
2013-01-30 14:21:00,57.5,10.2,30.27,NW,310,2.0,10.0,15,0.00,,---,0.00,VWS V14.01,2013-01-30 21:21:00,
2013-01-30 14:27:00,57.5,8.7,30.27,NNE,30,3.0,10.0,14,0.00,,---,0.00,VWS V14.01,2013-01-30 21:27:00,
2013-01-30 14:32:00,57.5,10.2,30.27,NNE,20,5.0,10.0,15,0.00,,---,0.00,VWS V14.01,2013-01-30 21:32:00,
2013-01-30 14:37:00,57.5,11.7,30.26,West,271,3.0,9.0,16,0.00,,---,0.00,VWS V14.01,2013-01-30 21:37:00,
2013-01-30 14:42:00,57.7,10.4,30.26,SSE,162,3.0,9.0,15,0.00,,---,0.00,VWS V14.01,2013-01-30 21:42:00,
2013-01-30 14:47:00,57.6,10.3,30.26,NNE,30,4.0,9.0,15,0.00,,---,0.00,VWS V14.01,2013-01-30 21:47:00,
2013-01-30 14:52:00,57.0,9.8,30.26,WNW,288,3.0,9.0,15,0.00,,---,0.00,VWS V14.01,2013-01-30 21:52:00,
2013-01-30 14:57:00,57.5,10.2,30.26,NNE,23,8.0,9.0,15,0.00,,---,0.00,VWS V14.01,2013-01-30 21:57:00,
2013-01-30 15:02:00,57.5,8.7,30.26,NE,43,5.0,9.0,14,0.00,,---,0.00,VWS V14.01,2013-01-30 22:02:00,
2013-01-30 15:07:00,57.1,9.9,30.25,NE,35,1.0,5.0,15,0.00,,---,0.00,VWS V14.01,2013-01-30 22:07:00,
2013-01-30 15:12:00,56.5,9.4,30.25,ESE,117,2.0,5.0,15,0.00,,---,0.00,VWS V14.01,2013-01-30 22:12:00,
2013-01-30 15:17:00,56.9,11.2,30.26,ENE,64,3.0,6.0,16,0.00,,---,0.00,VWS V14.01,2013-01-30 22:17:00,
2013-01-30 15:23:00,57.6,10.3,30.26,North,7,1.0,6.0,15,0.00,,---,0.00,VWS V14.01,2013-01-30 22:23:00,
2013-01-30 15:28:00,57.7,10.4,30.26,WNW,300,3.0,6.0,15,0.00,,---,0.00,VWS V14.01,2013-01-30 22:28:00,
2013-01-30 15:33:00,57.4,10.1,30.26,NNE,24,1.0,7.0,15,0.00,,---,0.00,VWS V14.01,2013-01-30 22:33:00,
2013-01-30 15:38:00,57.6,10.3,30.27,NE,37,3.0,5.0,15,0.00,,---,0.00,VWS V14.01,2013-01-30 22:38:00,
2013-01-30 15:43:00,56.7,9.6,30.26,ENE,60,0.0,5.0,15,0.00,,---,0.00,VWS V14.01,2013-01-30 22:43:00,
2013-01-30 15:48:00,57.1,11.4,30.26,WSW,242,5.0,5.0,16,0.00,,---,0.00,VWS V14.01,2013-01-30 22:48:00,
2013-01-30 15:53:00,57.2,11.4,30.26,West,269,3.0,5.0,16,0.00,,---,0.00,VWS V14.01,2013-01-30 22:53:00,
2013-01-30 15:58:00,57.5,11.7,30.26,WSW,255,2.0,5.0,16,0.00,,---,0.00,VWS V14.01,2013-01-30 22:58:00,
2013-01-30 16:03:00,57.5,11.7,30.26,WSW,242,0.0,0.0,16,0.00,,---,0.00,VWS V14.01,2013-01-30 23:03:00,
2013-01-30 16:08:00,57.7,10.4,30.26,SW,226,2.0,4.0,15,0.00,,---,0.00,VWS V14.01,2013-01-30 23:08:00,
2013-01-30 16:13:00,58.1,13.5,30.26,WSW,250,0.0,4.0,17,0.00,,---,0.00,VWS V14.01,2013-01-30 23:13:00,
2013-01-30 16:19:00,58.8,11.3,30.26,North,356,0.0,4.0,15,0.00,,---,0.00,VWS V14.01,2013-01-30 23:19:00,
2013-01-30 16:24:00,58.8,12.7,30.27,NE,43,1.0,4.0,16,0.00,,---,0.00,VWS V14.01,2013-01-30 23:24:00,
2013-01-30 16:29:00,58.8,12.7,30.26,NW,316,2.0,4.0,16,0.00,,---,0.00,VWS V14.01,2013-01-30 23:29:00,
2013-01-30 16:34:00,58.2,12.2,30.26,NNW,347,1.0,1.0,16,0.00,,---,0.00,VWS V14.01,2013-01-30 23:34:00,
2013-01-30 16:39:00,58.4,12.4,30.26,WNW,293,0.0,1.0,16,0.00,,---,0.00,VWS V14.01,2013-01-30 23:39:00,
2013-01-30 16:44:00,59.0,19.1,30.26,West,278,0.0,1.0,21,0.00,,---,0.00,VWS V14.01,2013-01-30 23:44:00,
2013-01-30 16:49:00,58.7,22.0,30.25,ESE,113,0.0,3.0,24,0.00,,---,0.00,VWS V14.01,2013-01-30 23:49:00,
2013-01-30 16:54:00,57.4,17.8,30.25,ESE,111,0.0,4.0,21,0.00,,---,0.00,VWS V14.01,2013-01-30 23:54:00,
2013-01-30 16:59:00,57.2,14.1,30.25,NW,315,1.0,4.0,18,0.00,,---,0.00,VWS V14.01,2013-01-30 23:59:00,
2013-01-30 17:04:00,57.2,12.8,30.25,ENE,59,0.0,1.0,17,0.00,,---,0.00,VWS V14.01,2013-01-31 00:04:00,
2013-01-30 17:10:00,56.9,13.9,30.25,WNW,302,0.0,1.0,18,0.00,,---,0.00,VWS V14.01,2013-01-31 00:10:00,
2013-01-30 17:15:00,56.7,22.2,30.25,West,277,2.0,3.0,26,0.00,,---,0.00,VWS V14.01,2013-01-31 00:15:00,
2013-01-30 17:20:00,55.6,23.0,30.25,SSE,150,0.0,3.0,28,0.00,,---,0.00,VWS V14.01,2013-01-31 00:20:00,
2013-01-30 17:25:00,54.9,22.4,30.25,West,259,1.0,4.0,28,0.00,,---,0.00,VWS V14.01,2013-01-31 00:25:00,
2013-01-30 17:30:00,54.5,21.2,30.25,WSW,257,1.0,4.0,27,0.00,,---,0.00,VWS V14.01,2013-01-31 00:30:00,
2013-01-30 17:35:00,54.0,23.3,30.25,SW,236,4.0,6.0,30,0.00,,---,0.00,VWS V14.01,2013-01-31 00:35:00,
2013-01-30 17:40:00,53.2,24.1,30.25,West,271,1.0,8.0,32,0.00,,---,0.00,VWS V14.01,2013-01-31 00:40:00,
2013-01-30 17:45:00,52.4,23.4,30.25,NW,315,0.0,8.0,32,0.00,,---,0.00,VWS V14.01,2013-01-31 00:45:00,
2013-01-30 17:50:00,52.4,23.4,30.25,NW,309,1.0,8.0,32,0.00,,---,0.00,VWS V14.01,2013-01-31 00:50:00,
2013-01-30 17:55:00,52.1,23.2,30.25,ENE,76,2.0,8.0,32,0.00,,---,0.00,VWS V14.01,2013-01-31 00:55:00,
2013-01-30 18:00:00,51.5,23.4,30.24,WSW,258,2.0,8.0,33,0.00,,---,0.00,VWS V14.01,2013-01-31 01:00:00,
2013-01-30 18:05:00,51.0,23.6,30.25,NE,46,0.0,2.0,34,0.00,,---,0.00,VWS V14.01,2013-01-31 01:05:00,
2013-01-30 18:10:00,50.5,23.9,30.25,NNE,29,0.0,2.0,35,0.00,,---,0.00,VWS V14.01,2013-01-31 01:10:00,
2013-01-30 18:16:00,49.9,23.4,30.25,NNE,29,0.0,2.0,35,0.00,,---,0.00,VWS V14.01,2013-01-31 01:16:00,
2013-01-30 18:21:00,49.3,24.1,30.24,NNE,29,0.0,2.0,37,0.00,,---,0.00,VWS V14.01,2013-01-31 01:21:00,
2013-01-30 18:26:00,48.6,24.2,30.24,ENE,61,0.0,2.0,38,0.00,,---,0.00,VWS V14.01,2013-01-31 01:26:00,
2013-01-30 18:31:00,48.4,23.3,30.24,ENE,64,0.0,3.0,37,0.00,,---,0.00,VWS V14.01,2013-01-31 01:31:00,
2013-01-30 18:36:00,48.4,24.0,30.24,ENE,68,3.0,3.0,38,0.00,,---,0.00,VWS V14.01,2013-01-31 01:36:00,
2013-01-30 18:41:00,48.3,23.9,30.24,NE,47,0.0,3.0,38,0.00,,---,0.00,VWS V14.01,2013-01-31 01:41:00,
2013-01-30 18:46:00,48.0,24.2,30.24,NE,41,1.0,6.0,39,0.00,,---,0.00,VWS V14.01,2013-01-31 01:46:00,
2013-01-30 18:51:00,47.6,24.5,30.24,NE,44,2.0,6.0,40,0.00,,---,0.00,VWS V14.01,2013-01-31 01:51:00,
2013-01-30 18:56:00,47.3,24.2,30.24,NE,49,3.0,6.0,40,0.00,,---,0.00,VWS V14.01,2013-01-31 01:56:00,
2013-01-30 19:01:00,47.0,24.5,30.25,NE,50,5.0,7.0,41,0.00,,---,0.00,VWS V14.01,2013-01-31 02:01:00,
2013-01-30 19:06:00,46.6,24.2,30.24,ENE,58,1.0,6.0,41,0.00,,---,0.00,VWS V14.01,2013-01-31 02:06:00,
2013-01-30 19:11:00,46.2,23.8,30.24,NE,46,2.0,6.0,41,0.00,,---,0.00,VWS V14.01,2013-01-31 02:11:00,
2013-01-30 19:16:00,46.0,23.6,30.24,NE,47,2.0,6.0,41,0.00,,---,0.00,VWS V14.01,2013-01-31 02:16:00,
2013-01-30 19:21:00,45.8,23.5,30.24,NE,55,2.0,6.0,41,0.00,,---,0.00,VWS V14.01,2013-01-31 02:21:00,
2013-01-30 19:26:00,45.5,23.2,30.25,NE,56,4.0,6.0,41,0.00,,---,0.00,VWS V14.01,2013-01-31 02:26:00,
2013-01-30 19:31:00,45.4,23.1,30.25,ENE,65,4.0,6.0,41,0.00,,---,0.00,VWS V14.01,2013-01-31 02:31:00,
2013-01-30 19:36:00,45.2,22.9,30.25,NE,45,7.0,10.0,41,0.00,,---,0.00,VWS V14.01,2013-01-31 02:36:00,
2013-01-30 19:41:00,45.2,22.3,30.25,NE,51,5.0,10.0,40,0.00,,---,0.00,VWS V14.01,2013-01-31 02:41:00,
2013-01-30 19:46:00,45.2,21.7,30.25,NNE,29,4.0,10.0,39,0.00,,---,0.00,VWS V14.01,2013-01-31 02:46:00,
2013-01-30 19:52:00,45.1,21.6,30.25,NNE,30,3.0,10.0,39,0.00,,---,0.00,VWS V14.01,2013-01-31 02:52:00,
2013-01-30 19:57:00,45.1,21.6,30.25,NE,50,5.0,10.0,39,0.00,,---,0.00,VWS V14.01,2013-01-31 02:57:00,
2013-01-30 20:02:00,44.9,21.5,30.25,NE,40,4.0,10.0,39,0.00,,---,0.00,VWS V14.01,2013-01-31 03:02:00,
2013-01-30 20:07:00,44.7,21.3,30.26,NE,54,3.0,5.0,39,0.00,,---,0.00,VWS V14.01,2013-01-31 03:07:00,
2013-01-30 20:12:00,44.5,21.1,30.26,ENE,62,4.0,6.0,39,0.00,,---,0.00,VWS V14.01,2013-01-31 03:12:00,
2013-01-30 20:17:00,44.3,21.5,30.26,ENE,58,3.0,6.0,40,0.00,,---,0.00,VWS V14.01,2013-01-31 03:17:00,
2013-01-30 20:22:00,44.0,21.2,30.26,ENE,58,1.0,6.0,40,0.00,,---,0.00,VWS V14.01,2013-01-31 03:22:00,
2013-01-30 20:27:00,43.6,21.5,30.26,NE,40,1.0,6.0,41,0.00,,---,0.00,VWS V14.01,2013-01-31 03:27:00,
2013-01-30 20:32:00,43.3,21.8,30.26,NNE,29,1.0,6.0,42,0.00,,---,0.00,VWS V14.01,2013-01-31 03:32:00,
2013-01-30 20:37:00,43.1,21.6,30.26,NE,47,2.0,4.0,42,0.00,,---,0.00,VWS V14.01,2013-01-31 03:37:00,
2013-01-30 20:42:00,43.1,21.6,30.26,ENE,70,1.0,4.0,42,0.00,,---,0.00,VWS V14.01,2013-01-31 03:42:00,
2013-01-30 20:47:00,42.9,22.0,30.26,NE,55,2.0,4.0,43,0.00,,---,0.00,VWS V14.01,2013-01-31 03:47:00,
2013-01-30 20:52:00,42.6,21.7,30.25,ENE,58,2.0,5.0,43,0.00,,---,0.00,VWS V14.01,2013-01-31 03:52:00,
2013-01-30 20:57:00,42.4,22.0,30.25,NE,55,1.0,5.0,44,0.00,,---,0.00,VWS V14.01,2013-01-31 03:57:00,
2013-01-30 21:03:00,42.1,22.3,30.25,NE,40,2.0,5.0,45,0.00,,---,0.00,VWS V14.01,2013-01-31 04:03:00,
2013-01-30 21:08:00,41.7,23.0,30.26,ENE,58,1.0,3.0,47,0.00,,---,0.00,VWS V14.01,2013-01-31 04:08:00,
2013-01-30 21:13:00,41.2,23.0,30.26,NE,47,0.0,3.0,48,0.00,,---,0.00,VWS V14.01,2013-01-31 04:13:00,
2013-01-30 21:18:00,41.1,22.4,30.25,NNE,25,3.0,4.0,47,0.00,,---,0.00,VWS V14.01,2013-01-31 04:18:00,
2013-01-30 21:23:00,41.3,22.1,30.25,NNE,18,3.0,5.0,46,0.00,,---,0.00,VWS V14.01,2013-01-31 04:23:00,
2013-01-30 21:28:00,41.5,22.3,30.25,NE,41,1.0,5.0,46,0.00,,---,0.00,VWS V14.01,2013-01-31 04:28:00,
2013-01-30 21:33:00,41.7,21.9,30.25,NNE,20,3.0,4.0,45,0.00,,---,0.00,VWS V14.01,2013-01-31 04:33:00,
2013-01-30 21:38:00,42.4,22.0,30.25,NNE,30,4.0,9.0,44,0.00,,---,0.00,VWS V14.01,2013-01-31 04:38:00,
2013-01-30 21:44:00,42.9,22.0,30.25,NNE,18,6.0,10.0,43,0.00,,---,0.00,VWS V14.01,2013-01-31 04:44:00,
2013-01-30 21:49:00,42.9,22.0,30.24,NNW,343,4.0,10.0,43,0.00,,---,0.00,VWS V14.01,2013-01-31 04:49:00,
2013-01-30 21:54:00,42.8,21.9,30.25,NNW,345,1.0,10.0,43,0.00,,---,0.00,VWS V14.01,2013-01-31 04:54:00,
2013-01-30 21:59:00,42.7,21.8,30.25,NNE,12,2.0,10.0,43,0.00,,---,0.00,VWS V14.01,2013-01-31 04:59:00,
2013-01-30 22:00:00,42.6,21.7,30.25,North,1,1.0,10.0,43,0.00,,---,0.00,VWS V14.01,2013-01-31 05:00:00,
2013-01-30 22:03:00,42.6,22.2,30.25,NNE,20,0.0,10.0,44,0.00,,---,0.00,VWS V14.01,2013-01-31 05:03:00,
2013-01-30 22:07:00,42.3,22.0,30.24,North,6,0.0,2.0,44,0.00,,---,0.00,VWS V14.01,2013-01-31 05:07:00,
2013-01-30 22:12:00,41.7,21.9,30.24,NNW,342,2.0,2.0,45,0.00,,---,0.00,VWS V14.01,2013-01-31 05:12:00,
2013-01-30 22:17:00,41.3,22.1,30.24,North,354,2.0,3.0,46,0.00,,---,0.00,VWS V14.01,2013-01-31 05:17:00,
2013-01-30 22:22:00,41.1,22.9,30.25,NNE,30,3.0,3.0,48,0.00,,---,0.00,VWS V14.01,2013-01-31 05:22:00,
2013-01-30 22:27:00,40.7,22.5,30.25,NNE,22,1.0,4.0,48,0.00,,---,0.00,VWS V14.01,2013-01-31 05:27:00,
2013-01-30 22:32:00,40.4,22.8,30.24,NNE,22,1.0,4.0,49,0.00,,---,0.00,VWS V14.01,2013-01-31 05:32:00,
2013-01-30 22:37:00,40.4,22.8,30.25,NNE,32,0.0,5.0,49,0.00,,---,0.00,VWS V14.01,2013-01-31 05:37:00,
2013-01-30 22:43:00,40.4,22.8,30.24,NNE,21,1.0,5.0,49,0.00,,---,0.00,VWS V14.01,2013-01-31 05:43:00,
2013-01-30 22:48:00,40.4,22.8,30.25,NNE,22,0.0,5.0,49,0.00,,---,0.00,VWS V14.01,2013-01-31 05:48:00,
2013-01-30 22:53:00,40.1,23.0,30.25,NNE,21,0.0,5.0,50,0.00,,---,0.00,VWS V14.01,2013-01-31 05:53:00,
2013-01-30 22:58:00,39.7,23.1,30.25,NNE,22,0.0,5.0,51,0.00,,---,0.00,VWS V14.01,2013-01-31 05:58:00,
2013-01-30 23:03:00,39.5,22.4,30.26,NNE,21,0.0,5.0,50,0.00,,---,0.00,VWS V14.01,2013-01-31 06:03:00,
2013-01-30 23:08:00,39.4,22.8,30.25,NNE,21,0.0,0.0,51,0.00,,---,0.00,VWS V14.01,2013-01-31 06:08:00,
2013-01-30 23:13:00,39.5,22.9,30.25,NNE,32,0.0,0.0,51,0.00,,---,0.00,VWS V14.01,2013-01-31 06:13:00,
2013-01-30 23:18:00,39.7,22.6,30.26,NE,55,0.0,0.0,50,0.00,,---,0.00,VWS V14.01,2013-01-31 06:18:00,
2013-01-30 23:23:00,40.3,22.7,30.26,ENE,66,0.0,1.0,49,0.00,,---,0.00,VWS V14.01,2013-01-31 06:23:00,
2013-01-30 23:28:00,40.1,23.0,30.26,ENE,66,0.0,1.0,50,0.00,,---,0.00,VWS V14.01,2013-01-31 06:28:00,
2013-01-30 23:33:00,39.8,23.2,30.26,NE,40,3.0,3.0,51,0.00,,---,0.00,VWS V14.01,2013-01-31 06:33:00,
2013-01-30 23:38:00,38.5,25.0,30.26,NE,51,2.0,3.0,58,0.00,,---,0.00,VWS V14.01,2013-01-31 06:38:00,
2013-01-30 23:43:00,37.6,25.0,30.27,NE,39,2.0,3.0,60,0.00,,---,0.00,VWS V14.01,2013-01-31 06:43:00,
2013-01-30 23:48:00,37.2,25.0,30.26,NE,55,1.0,5.0,61,0.00,,---,0.00,VWS V14.01,2013-01-31 06:48:00,
2013-01-30 23:54:00,37.1,24.9,30.27,NE,50,1.0,5.0,61,0.00,,---,0.00,VWS V14.01,2013-01-31 06:54:00,
2013-01-30 23:59:00,36.9,25.1,30.27,NE,49,0.0,5.0,62,0.00,,---,0.00,VWS V14.01,2013-01-31 06:59:00,